Morristown, NJ

8:05 AM EDT on June 24, 2018 (GMT -0400)
Morristown Municipal

Weather History for KMMU - October, 2017

Change the Weather History Date:

Tuesday, October 3, 2017

  Actual Average Record
Temperature  
Mean Temperature 53 °F -  
Max Temperature 69 °F 70 °F 86 °F (1932)
Min Temperature 37 °F 46 °F 30 °F (1935)
Degree Days  
Heating Degree Days 12    
Growing Degree Days 3 (Base 50)    
Moisture  
Dew Point 44 °F    
Average Humidity 87    
Maximum Humidity 100    
Minimum Humidity 46    
Precipitation  
Precipitation 0.00 in - - ()
Sea Level Pressure  
Sea Level Pressure 30.57 in    
Wind  
Wind Speed 1 mph (SSE)    
Max Wind Speed 10 mph    
Max Gust Speed 15 mph    
Visibility 9 miles    
Events Fog    
Averages and records for this station are not official NWS values.
T = Trace of Precipitation, MM = Missing Value Source: NWS Daily Summary

Daily Weather History Graph

Daily Weather History Graph

Search for Another Location

Airport or City:

Astronomy

Oct. 03, 2017 Rise Set
Actual Time 6:56 AM EDT 6:35 PM EDT
Civil Twilight 6:29 AM EDT 7:03 PM EDT
Nautical Twilight 5:57 AM EDT 7:34 PM EDT
Astronomical Twilight 5:25 AM EDT 8:06 PM EDT
Moon 5:48 PM EDT (10/3) 4:23 AM EDT (10/3)
Length of Visible Light 12h 34m
Length of Day
11h 39m
Waxing Gibbous, 95% of the Moon is Illuminated
Oct 3
Waxing Gibbous
Oct 5
Full
Oct 12
Last Quarter
Oct 19
New
Oct 27
First Quarter

Hourly Weather History & Observations

Time (EDT) Temp. Dew Point Humidity Pressure Visibility Wind Dir Wind Speed Gust Speed Precip Events Conditions
12:15 AM 44.6 °F 42.8 °F 93% 30.53 in 10.0 mi Calm Calm - N/A   Clear
12:35 AM 42.8 °F 42.8 °F 100% 30.53 in 10.0 mi Calm Calm - N/A   Clear
12:55 AM 42.8 °F 41.0 °F 93% 30.53 in 2.0 mi Calm Calm - N/A   Clear
1:15 AM 42.8 °F 41.0 °F 93% 30.54 in 7.0 mi Calm Calm - N/A   Clear
1:35 AM 42.8 °F 41.0 °F 93% 30.54 in 10.0 mi Calm Calm - N/A   Clear
1:55 AM 41.0 °F 41.0 °F 100% 30.54 in 10.0 mi Calm Calm - N/A   Clear
2:15 AM 41.0 °F 39.2 °F 93% 30.54 in 7.0 mi Calm Calm - N/A   Clear
2:35 AM 41.0 °F 41.0 °F 100% 30.54 in 0.8 mi Calm Calm - N/A   Mist
2:55 AM 41.0 °F 41.0 °F 100% 30.54 in 0.8 mi Calm Calm - N/A   Overcast
3:15 AM 41.0 °F 41.0 °F 100% 30.55 in 1.5 mi Calm Calm - N/A   Mostly Cloudy
3:35 AM 41.0 °F 39.2 °F 93% 30.55 in 10.0 mi Calm Calm - N/A   Clear
3:55 AM 39.2 °F 39.2 °F 100% 30.55 in 0.8 mi Calm Calm - N/A   Mostly Cloudy
4:15 AM 39.2 °F 39.2 °F 100% 30.55 in 10.0 mi Calm Calm - N/A   Scattered Clouds
4:35 AM 39.2 °F 39.2 °F 100% 30.56 in 10.0 mi Calm Calm - N/A   Clear
4:55 AM 39.2 °F 39.2 °F 100% 30.56 in 10.0 mi Calm Calm - N/A   Clear
5:15 AM 39.2 °F 39.2 °F 100% 30.56 in 10.0 mi Calm Calm - N/A   Clear
5:35 AM 39.2 °F 39.2 °F 100% 30.56 in 10.0 mi Calm Calm - N/A   Clear
5:55 AM 39.2 °F 37.4 °F 93% 30.57 in 10.0 mi Calm Calm - N/A   Clear
6:15 AM 37.4 °F 37.4 °F 100% 30.58 in 1.8 mi Calm Calm - N/A   Mist
6:35 AM 39.2 °F 37.4 °F 93% 30.59 in 3.0 mi Calm Calm - N/A   Clear
6:45 AM 39.2 °F 39.2 °F 100% 30.60 in 10.0 mi Calm Calm - N/A Fog Shallow Fog
7:45 AM 44.6 °F 42.8 °F 93% 30.62 in 10.0 mi Calm Calm - N/A   Clear
8:45 AM 50.0 °F 48.2 °F 94% 30.63 in 10.0 mi Calm Calm - N/A   Clear
9:45 AM 59.0 °F 51.8 °F 77% 30.65 in 10.0 mi Calm Calm - N/A   Clear
10:45 AM 64.4 °F 53.6 °F 68% 30.65 in 15.0 mi Calm Calm - N/A   Scattered Clouds
11:45 AM 66.2 °F 51.8 °F 60% 30.64 in 15.0 mi South 9.2 mph - N/A   Mostly Cloudy
12:50 PM 68.0 °F 50.0 °F 52% 30.62 in 10.0 mi ENE 4.6 mph - N/A   Scattered Clouds
1:45 PM 69.8 °F 50.0 °F 49% 30.61 in 10.0 mi SSE 8.1 mph - N/A   Scattered Clouds
2:45 PM 69.8 °F 48.2 °F 46% 30.59 in 10.0 mi SSW 10.4 mph - N/A   Scattered Clouds
3:45 PM 68.0 °F 48.2 °F 49% 30.57 in 10.0 mi SE 10.4 mph - N/A   Partly Cloudy
4:50 PM 68.0 °F 50.0 °F 52% 30.57 in 10.0 mi SSE 8.1 mph 15.0 mph N/A   Partly Cloudy
5:45 PM 64.4 °F 48.2 °F 56% 30.57 in 10.0 mi South 9.2 mph - N/A   Clear
6:50 PM 60.8 °F 48.2 °F 63% 30.58 in 10.0 mi SSE 3.5 mph - N/A   Partly Cloudy
7:45 PM 53.6 °F 48.2 °F 82% 30.58 in 10.0 mi SSE 3.5 mph - N/A   Partly Cloudy
8:45 PM 48.2 °F 48.2 °F 100% 30.58 in 10.0 mi SSE 3.5 mph - N/A   Partly Cloudy
9:45 PM 48.2 °F 46.4 °F 93% 30.58 in 10.0 mi SSE 3.5 mph - N/A   Partly Cloudy
10:35 PM 44.6 °F 44.6 °F 100% 30.57 in 10.0 mi Calm Calm - N/A   Clear
10:55 PM 44.6 °F 42.8 °F 93% 30.56 in 10.0 mi Calm Calm - N/A   Clear
11:15 PM 44.6 °F 42.8 °F 93% 30.56 in 10.0 mi Calm Calm - N/A   Clear
11:35 PM 44.6 °F 42.8 °F 93% 30.56 in 10.0 mi Calm Calm - N/A   Clear
11:55 PM 42.8 °F 42.8 °F 100% 30.56 in 10.0 mi Calm Calm - N/A   Clear